TimeEDT,TemperatureF,Dew PointF,Humidity,Sea Level PressureIn,VisibilityMPH,Wind Direction,Wind SpeedMPH,Gust SpeedMPH,PrecipitationIn,Events,Conditions,WindDirDegrees,DateUTC
12:56 AM,78.1,69.1,74,30.20,10.0,Calm,Calm,-,N/A,,Clear,0,2013-07-05 04:56:00
1:56 AM,77.0,70.0,79,30.20,10.0,South,3.5,-,N/A,,Clear,180,2013-07-05 05:56:00
2:56 AM,78.1,70.0,76,30.19,10.0,SSW,5.8,-,N/A,,Clear,200,2013-07-05 06:56:00
3:56 AM,77.0,70.0,79,30.19,10.0,Calm,Calm,-,N/A,,Clear,0,2013-07-05 07:56:00
4:56 AM,75.9,70.0,82,30.19,10.0,WNW,3.5,-,N/A,,Clear,300,2013-07-05 08:56:00
5:56 AM,75.0,70.0,84,30.20,8.0,Calm,Calm,-,N/A,,Clear,0,2013-07-05 09:56:00
6:56 AM,77.0,70.0,79,30.20,10.0,North,3.5,-,N/A,,Clear,10,2013-07-05 10:56:00
7:56 AM,78.1,71.1,79,30.21,10.0,Variable,4.6,-,N/A,,Clear,0,2013-07-05 11:56:00
8:56 AM,79.0,71.1,77,30.21,10.0,SW,3.5,-,N/A,,Partly Cloudy,220,2013-07-05 12:56:00
9:56 AM,82.0,72.0,71,30.20,10.0,SSW,6.9,-,N/A,,Scattered Clouds,200,2013-07-05 13:56:00
10:56 AM,84.0,72.0,67,30.19,10.0,SSW,8.1,-,N/A,,Scattered Clouds,210,2013-07-05 14:56:00
11:56 AM,-9999,-9999,N/A,30.19,-9999.0,SSW,11.5,-,N/A,,Unknown,210,2013-07-05 15:56:00
12:56 PM,87.1,72.0,61,30.18,10.0,North,-9999.0,-,N/A,,Partly Cloudy,0,2013-07-05 16:56:00
1:56 PM,88.0,71.1,57,30.16,10.0,SSW,10.4,-,N/A,,Partly Cloudy,210,2013-07-05 17:56:00
2:56 PM,89.1,70.0,53,30.15,10.0,South,11.5,18.4,N/A,,Partly Cloudy,190,2013-07-05 18:56:00
3:56 PM,90.0,70.0,52,30.13,10.0,SSW,9.2,-,N/A,,Partly Cloudy,200,2013-07-05 19:56:00
4:56 PM,89.1,70.0,53,30.11,10.0,SW,11.5,17.3,N/A,,Clear,220,2013-07-05 20:56:00
5:56 PM,89.1,71.1,55,30.11,10.0,South,9.2,-,N/A,,Clear,190,2013-07-05 21:56:00
6:56 PM,86.0,71.1,61,30.10,10.0,SSW,5.8,-,N/A,,Clear,200,2013-07-05 22:56:00
7:56 PM,84.9,70.0,61,30.11,10.0,SSW,6.9,-,N/A,,Clear,200,2013-07-05 23:56:00
8:56 PM,82.9,70.0,65,30.12,10.0,SSW,5.8,-,N/A,,Clear,210,2013-07-06 00:56:00
9:56 PM,82.9,69.1,63,30.13,10.0,South,5.8,-,N/A,,Clear,190,2013-07-06 01:56:00
10:56 PM,82.0,70.0,67,30.14,10.0,SSW,5.8,-,N/A,,Clear,200,2013-07-06 02:56:00
11:56 PM,81.0,71.1,72,30.14,10.0,SW,10.4,-,N/A,,Clear,220,2013-07-06 03:56:00